Location: Oak Glen
(34.0495°N, 116.9470°E)
Time: 19:26:31
(UTC-07:00)

Vanguard 1 - Pass Details

Date: 25 June 2018
Orbit: 650 x 3833 km, 34.2° (Epoch: 23 September)

Event Time Altitude Azimuth Distance (km) Brightness Sun altitude
Rises 17:23:23 0° 277° (W) 4,996 13.2 38.8°
Reaches altitude 10° 17:26:02 10° 277° (W) 4,319 13.0 39.3°
Maximum altitude 17:39:02 87° 190° (S) 2,870 13.2 42.0°
Drops below altitude 10° 18:01:27 10° 105° (ESE) 6,881 15.3 46.6°
Sets 18:07:03 0° 105° (ESE) 7,971 15.4 47.8°
